SCP
2 1 1 0 1 1 1 1 1 1 1 1 1 1 0 0 0 0 0 0 0 0 0 0 0 0 0 0 0 0 0 0 0 0 0 0 0 0 -0 -0 -0 -0 -0
2 1 1 1 1 1 1 0 1 1 1 1 1 1 1 1 0 0 0 1 0 0 0 0 0 0 0 0 0 0 0 0 0 0 0 0 0 0 -0 -0 -0 -0 -0
2 1 1 1 0 1 1 1 1 1 1 1 1 1 1 0 0 0 1 0 0 0 0 0 0 0 0 0 0 0 0 0 0 0 0 0 0 0 0 -0 0 -0 -0
1 1 1 0 0 1 0 1 1 1 1 1 2 2 1 1 0 0 0 0 0 0 0 0 0 0 0 0 0 0 0 0 0 0 0 0 0 0 -0 -0 -0 -0 -0
1 1 0 0 1 0 0 1 1 1 1 2 1 1 1 1 1 0 0 0 0 0 0 0 0 0 0 0 0 0 0 0 0 0 0 0 0 0 0 0 0 0 -0
1 1 0 1 1 1 0 1 1 1 2 1 1 1 1 1 0 0 0 0 0 0 0 0 0 0 0 0 0 0 0 0 0 0 0 0 0 0 0 0 0 0 0
1 1 1 1 1 0 0 0 1 3 2 1 1 1 0 0 0 0 0 0 0 0 0 0 0 1 0 0 0 0 0 0 0 0 0 0 0 0 0 0 0 0 -0
1 1 1 1 1 1 1 1 2 2 1 1 1 1 0 1 0 0 0 0 0 0 0 0 0 0 0 0 0 0 0 0 0 0 0 0 0 0 0 -0 -0 -0 -0
1 1 1 1 1 1 1 1 1 1 1 1 0 0 0 0 0 0 0 0 0 0 0 0 0 0 0 0 0 0 0 0 0 0 0 0 0 0 0 -0 -0 -0 -0
1 1 1 1 1 1 1 1 1 1 1 1 0 0 0 0 0 0 0 0 0 0 0 0 0 0 0 0 0 0 0 0 0 0 0 0 0 -0 -0 -0 -0 -0 -0
1 1 1 1 1 1 1 1 1 1 1 0 0 0 0 0 0 0 0 0 0 0 0 0 0 1 0 0 0 0 0 0 0 0 0 -0 -0 -0 0 -0 -0 -0 -0
1 1 1 1 1 1 1 1 0 0 0 0 0 0 0 0 0 0 0 0 0 0 0 0 0 1 0 0 0 0 0 0 0 0 0 0 -0 -0 -0 -0 -0 -0 -0
1 1 1 1 1 1 1 0 0 0 0 0 0 0 0 0 0 -0 0 0 0 0 0 0 0 0 0 0 0 0 0 0 0 0 0 0 -0 -0 -0 -0 -0 -0 0
1 1 1 1 1 0 0 0 0 0 0 0 0 0 -0 0 0 -0 0 0 0 0 0 0 0 1 0 0 0 0 0 0 0 0 0 0 0 0 0 0 0 0 0
1 1 1 1 0 0 0 0 0 0 0 0 0 0 -0 -0 -0 0 -0 -0 0 0 0 0 1 0 0 0 0 0 0 0 0 0 0 0 0 0 0 0 0 0 0
1 1 0 0 0 0 0 0 0 0 0 0 0 -0 -0 -0 0 -0 0 0 0 0 0 0 0 0 0 0 0 0 0 0 0 0 0 0 0 0 0 0 0 0 0
0 0 0 0 0 0 0 0 0 0 0 0 0 0 -0 -0 -0 0 0 0 0 0 0 0 1 0 0 0 0 0 0 0 0 0 0 0 0 0 0 0 0 0 0
0 0 0 0 0 0 0 0 0 0 0 0 0 0 0 0 0 0 0 0 0 0 0 0 0 0 0 0 0 0 0 0 0 0 0 0 0 -0 0 0 0 -0 -0
0 0 0 0 0 0 0 0 0 0 0 0 0 0 0 0 0 0 0 0 0 0 0 0 0 0 0 0 0 0 0 0 0 0 0 0 0 0 0 0 0 0 0
0 0 0 0 0 0 0 0 0 0 0 0 0 -0 -0 0 0 0 0 0 0 0 0 0 0 0 0 0 0 0 0 0 0 0 0 0 0 0 0 0 0 0 0
0 0 0 0 0 0 0 0 0 0 0 0 -0 -0 0 0 0 0 0 0 0 0 0 0 0 0 0 0 0 0 0 0 0 0 0 0 0 0 0 0 0 0 -0
0 0 0 0 0 0 -0 0 -0 0 0 0 -0 -0 0 0 0 0 0 0 0 0 0 0 0 0 0 0 0 0 0 0 0 0 0 0 0 0 0 0 0 0 -0
0 0 0 0 0 -0 -0 0 0 0 0 0 -0 -0 -0 0 0 0 0 0 0 0 0 0 0 0 0 0 0 0 0 0 0 0 0 0 0 0 0 0 0 0 -0
0 0 0 0 -0 0 0 0 0 0 -0 0 -0 0 -0 0 0 0 0 0 0 0 0 0 0 0 0 0 0 0 0 0 0 0 0 0 0 0 0 0 0 0 -0
0 0 0 -0 -0 -0 0 -0 0 0 -0 -0 -0 0 0 0 0 0 0 0 0 0 0 0 0 0 0 0 0 0 0 0 0 0 0 0 0 0 0 0 0 0 -0
0 0 0 -0 -0 -0 0 -0 0 0 -0 -0 -0 -0 0 0 -0 0 0 -0 0 0 0 0 0 0 0 0 0 0 0 0 0 0 0 0 0 0 0 0 0 -0 0
Wind_Speed_500mb
70 59 54 49 44 40 40 37 35 32 28 29 27 26 23 23 21 19 18 32 25 20 20 23 33 35 35 34 32 33 29 26 27 28 41 26 29 31 25 41 39 33 41
66 57 56 52 48 44 40 37 35 33 31 30 31 30 28 27 26 25 23 27 30 28 24 20 23 35 33 35 34 35 34 27 32 33 45 28 36 35 37 42 30 29 34
63 62 51 51 48 47 44 38 37 34 31 31 32 34 33 29 30 29 29 27 26 28 29 24 21 27 34 34 31 33 32 26 32 36 39 38 39 32 35 33 30 30 30
56 59 50 49 47 46 41 40 37 33 30 32 36 38 35 29 31 33 33 30 26 23 23 24 27 24 31 34 31 33 32 29 32 37 35 34 36 32 39 25 28 30 27
49 50 42 42 49 45 43 39 40 33 31 37 30 33 33 26 34 34 35 30 29 28 22 26 31 30 32 35 35 35 31 29 30 36 35 32 27 25 21 22 23 24 24
43 38 37 39 47 43 43 41 35 33 35 27 25 30 32 31 30 33 34 34 29 27 26 25 21 25 31 35 35 33 33 28 29 37 34 35 29 27 25 22 21 22 24
36 36 35 42 40 41 43 40 35 34 25 23 24 29 31 37 39 36 34 32 28 26 25 26 21 29 26 31 31 34 31 30 27 37 36 32 32 32 24 20 21 26 38
35 36 39 34 33 35 41 36 38 28 22 27 20 20 29 24 25 29 29 26 28 31 25 25 23 27 27 23 24 30 34 31 29 35 34 33 26 29 34 28 27 24 28
35 33 35 31 33 33 33 38 33 29 25 21 28 22 15 12 5 13 26 23 28 33 31 24 27 26 32 26 21 23 31 33 29 31 34 33 31 30 26 26 26 28 39
32 35 32 32 36 32 35 32 27 26 26 24 28 26 29 21 10 9 13 23 28 29 26 27 25 30 28 20 22 22 26 29 34 31 34 37 34 35 29 29 32 30 38
37 37 36 35 35 31 31 30 28 29 29 23 22 18 21 22 21 16 12 16 30 31 24 21 27 27 34 22 20 20 27 29 32 33 37 38 37 37 29 31 27 32 27
36 38 36 34 32 30 32 30 29 26 22 21 21 21 21 20 23 17 10 13 20 25 22 18 28 30 33 22 19 20 26 30 31 32 38 40 40 41 31 30 36 33 32
34 36 38 34 31 34 29 26 24 19 21 21 22 22 19 19 19 24 18 16 17 21 26 18 29 26 27 29 22 23 24 31 33 31 37 41 39 39 34 30 34 35 38
33 39 33 30 28 25 23 21 18 19 21 21 18 20 18 18 17 14 18 21 19 17 25 21 28 28 27 33 31 27 23 31 35 35 38 44 38 36 36 37 39 33 35
32 33 29 26 23 19 19 20 19 20 22 22 18 21 19 19 20 20 19 22 20 23 20 23 25 29 29 29 29 29 26 32 37 36 39 41 37 38 37 37 30 36 37
29 27 23 20 18 18 18 19 21 24 25 24 20 20 20 19 21 22 22 20 20 19 23 25 28 32 32 32 32 26 28 34 37 37 40 44 41 41 40 39 38 39 41
24 20 19 19 17 16 16 17 18 18 22 25 21 18 19 20 21 21 26 23 19 19 23 27 30 31 29 30 32 25 30 37 38 36 43 45 41 48 44 44 43 40 42
22 21 19 17 14 13 14 15 18 20 25 30 30 26 20 16 22 24 26 25 22 24 27 34 33 33 31 31 35 36 37 36 38 39 43 44 42 48 52 50 47 42 36
26 22 19 15 11 11 13 14 16 23 26 32 38 32 26 19 19 25 26 27 23 25 27 36 39 37 36 33 44 43 41 41 41 38 43 48 46 59 61 46 43 39 39
26 21 16 10 8 7 9 12 18 19 20 29 38 37 32 20 21 23 29 28 27 27 31 34 43 48 45 40 48 52 47 40 56 74 69 64 61 58 48 41 38 40 38
23 18 13 9 4 4 6 7 5 6 11 14 20 39 27 23 23 25 34 28 32 35 33 37 53 52 54 58 59 60 59 53 67 78 67 63 57 48 41 40 44 41 34
22 18 13 8 4 3 1 2 10 4 7 14 21 25 25 25 26 27 32 39 32 39 38 50 59 59 63 70 57 68 73 83 74 59 64 59 50 41 42 38 44 36 29
21 17 14 8 4 5 6 6 13 9 10 12 17 22 23 24 29 32 37 40 43 34 29 43 55 66 71 64 65 83 75 68 76 70 65 55 51 44 35 40 40 30 29
22 14 15 9 7 8 8 8 13 8 10 12 14 18 24 30 31 34 36 34 33 30 25 39 49 58 61 62 68 87 66 61 67 67 58 55 52 28 30 35 33 32 27
19 15 14 9 7 9 9 11 10 5 11 12 12 18 22 36 36 35 39 41 42 36 33 37 45 47 57 55 72 67 64 65 72 64 53 43 35 30 29 35 34 29 27
19 13 13 10 7 9 10 11 9 13 14 20 21 24 24 32 37 35 36 41 45 42 40 43 45 42 57 59 62 68 62 74 77 67 45 26 35 32 19 32 30 29 29
Wind_Direction_500mb
230 228 222 220 222 220 226 225 226 234 240 247 249 253 251 254 254 254 255 272 263 258 255 252 240 231 230 233 234 229 236 244 223 218 204 227 214 200 224 217 219 211 200
231 226 225 224 223 222 223 223 229 231 242 244 253 250 249 252 258 254 254 265 274 262 258 258 245 225 224 230 235 232 233 235 219 213 212 217 214 220 228 206 212 201 205
230 229 226 226 225 225 218 222 223 231 235 244 249 246 243 250 253 258 252 252 263 276 258 245 242 225 221 226 231 225 223 231 221 218 210 221 219 225 222 207 199 200 215
232 233 222 227 225 222 223 222 226 229 242 250 248 250 249 242 253 255 247 242 246 248 266 259 241 231 225 225 226 222 227 231 222 217 221 203 205 209 207 197 196 205 211
228 218 225 223 221 219 221 219 224 231 242 243 253 259 256 248 252 250 245 239 235 237 238 253 246 237 225 221 222 224 226 230 224 213 206 203 201 208 206 189 192 196 195
220 219 216 214 222 213 216 221 224 233 230 250 256 256 253 255 253 253 245 242 232 236 230 231 239 234 220 221 215 219 221 223 224 213 202 204 204 208 204 178 181 188 185
213 217 208 217 217 211 214 225 222 220 231 240 250 267 271 268 260 251 246 241 223 224 228 232 215 210 212 204 205 211 219 222 217 210 204 200 201 207 201 185 176 180 187
213 216 205 208 206 209 214 208 205 213 226 234 252 267 272 249 248 239 240 226 226 215 221 223 219 211 190 200 208 215 218 216 208 201 196 192 194 176 171 184 189 190 198
213 208 200 189 202 191 199 198 204 211 231 242 253 245 272 272 243 251 226 217 222 215 204 207 213 200 184 178 198 207 202 197 191 192 190 184 181 180 175 184 171 164 174
190 182 179 182 182 177 192 197 208 223 235 245 265 244 240 253 256 216 227 218 207 213 216 214 202 192 180 182 170 186 185 180 174 186 183 183 179 178 184 176 170 168 171
173 169 171 172 174 176 196 198 220 235 244 242 244 242 234 240 242 238 213 190 209 206 213 213 194 187 182 171 176 179 179 177 178 178 182 183 183 186 179 170 163 172 176
163 168 171 173 180 188 201 213 228 238 235 230 227 225 239 226 230 211 182 181 189 203 205 194 193 184 188 177 178 178 177 177 177 177 181 182 181 181 185 162 169 178 181
165 171 173 181 191 206 213 217 233 225 220 219 221 231 233 236 237 225 203 186 188 199 200 192 182 179 182 168 191 177 179 176 178 179 179 182 186 187 175 166 174 169 163
163 171 175 189 197 205 211 223 225 213 217 217 231 230 224 215 225 224 195 185 162 172 182 182 170 174 169 178 179 176 169 173 175 180 177 180 185 178 172 166 169 173 163
167 169 176 183 197 207 216 215 209 218 218 226 236 236 230 207 202 208 212 200 190 171 168 173 168 172 170 166 172 174 176 173 174 175 178 181 182 172 166 170 171 166 162
158 166 175 191 200 199 204 216 224 224 226 233 233 236 235 223 202 194 202 198 196 175 162 173 173 169 166 170 175 170 175 172 174 174 177 181 180 171 171 171 169 162 163
167 172 175 171 178 190 208 222 232 233 224 221 227 225 239 224 207 186 194 195 198 179 165 154 163 172 168 175 170 170 167 168 168 174 173 180 178 174 172 167 157 164 171
154 155 158 165 181 201 223 240 246 224 216 220 214 222 223 225 200 190 187 195 208 187 170 161 159 166 171 177 170 168 168 166 167 169 176 185 177 178 169 160 167 173 166
148 149 156 164 185 217 235 237 232 229 236 230 220 223 218 216 198 192 188 196 185 166 158 159 158 166 159 170 164 164 163 165 165 160 177 179 172 167 165 171 169 166 168
148 154 156 163 188 222 236 247 251 256 251 237 226 215 214 217 206 200 191 182 167 165 164 163 173 160 159 162 164 158 151 157 167 169 168 166 168 167 167 157 168 172 168
151 154 145 151 157 235 253 227 254 238 224 246 224 201 211 209 200 194 191 174 173 169 165 173 170 165 160 161 161 156 152 154 153 156 158 160 162 152 155 167 166 166 170
154 152 137 134 161 145 138 138 131 163 131 137 152 180 191 194 192 183 189 172 177 174 175 171 171 169 165 167 164 157 154 151 142 164 158 152 158 159 168 171 176 175 181
157 150 127 120 99 108 83 77 111 133 131 146 172 186 180 176 174 168 161 173 170 183 184 185 180 179 174 177 164 154 156 158 156 159 156 158 161 156 172 181 180 191 190
156 145 126 110 98 98 96 90 116 132 149 159 174 186 184 178 174 177 173 172 168 175 190 187 185 177 181 171 169 168 165 163 155 154 167 166 167 172 172 186 186 189 194
160 144 127 115 98 108 104 100 103 137 150 149 168 165 178 182 179 180 176 177 174 174 178 188 181 180 179 173 176 181 173 167 162 168 164 170 173 174 186 187 193 196 201
160 149 130 122 124 116 105 95 97 111 127 131 135 157 160 168 178 177 180 167 156 158 166 172 173 177 180 183 178 177 172 171 166 169 169 167 168 172 181 200 204 206 209
Wind_Speed_850mb
70 59 54 49 44 40 40 37 35 32 28 29 27 26 23 23 21 19 18 32 25 20 20 23 33 35 35 34 32 33 29 26 27 28 41 26 29 31 25 41 39 33 41
66 57 56 52 48 44 40 37 35 33 31 30 31 30 28 27 26 25 23 27 30 28 24 20 23 35 33 35 34 35 34 27 32 33 45 28 36 35 37 42 30 29 34
63 62 51 51 48 47 44 38 37 34 31 31 32 34 33 29 30 29 29 27 26 28 29 24 21 27 34 34 31 33 32 26 32 36 39 38 39 32 35 33 30 30 30
56 59 50 49 47 46 41 40 37 33 30 32 36 38 35 29 31 33 33 30 26 23 23 24 27 24 31 34 31 33 32 29 32 37 35 34 36 32 39 25 28 30 27
49 50 42 42 49 45 43 39 40 33 31 37 30 33 33 26 34 34 35 30 29 28 22 26 31 30 32 35 35 35 31 29 30 36 35 32 27 25 21 22 23 24 24
43 38 37 39 47 43 43 41 35 33 35 27 25 30 32 31 30 33 34 34 29 27 26 25 21 25 31 35 35 33 33 28 29 37 34 35 29 27 25 22 21 22 24
36 36 35 42 40 41 43 40 35 34 25 23 24 29 31 37 39 36 34 32 28 26 25 26 21 29 26 31 31 34 31 30 27 37 36 32 32 32 24 20 21 26 38
35 36 39 34 33 35 41 36 38 28 22 27 20 20 29 24 25 29 29 26 28 31 25 25 23 27 27 23 24 30 34 31 29 35 34 33 26 29 34 28 27 24 28
35 33 35 31 33 33 33 38 33 29 25 21 28 22 15 12 5 13 26 23 28 33 31 24 27 26 32 26 21 23 31 33 29 31 34 33 31 30 26 26 26 28 39
32 35 32 32 36 32 35 32 27 26 26 24 28 26 29 21 10 9 13 23 28 29 26 27 25 30 28 20 22 22 26 29 34 31 34 37 34 35 29 29 32 30 38
37 37 36 35 35 31 31 30 28 29 29 23 22 18 21 22 21 16 12 16 30 31 24 21 27 27 34 22 20 20 27 29 32 33 37 38 37 37 29 31 27 32 27
36 38 36 34 32 30 32 30 29 26 22 21 21 21 21 20 23 17 10 13 20 25 22 18 28 30 33 22 19 20 26 30 31 32 38 40 40 41 31 30 36 33 32
34 36 38 34 31 34 29 26 24 19 21 21 22 22 19 19 19 24 18 16 17 21 26 18 29 26 27 29 22 23 24 31 33 31 37 41 39 39 34 30 34 35 38
33 39 33 30 28 25 23 21 18 19 21 21 18 20 18 18 17 14 18 21 19 17 25 21 28 28 27 33 31 27 23 31 35 35 38 44 38 36 36 37 39 33 35
32 33 29 26 23 19 19 20 19 20 22 22 18 21 19 19 20 20 19 22 20 23 20 23 25 29 29 29 29 29 26 32 37 36 39 41 37 38 37 37 30 36 37
29 27 23 20 18 18 18 19 21 24 25 24 20 20 20 19 21 22 22 20 20 19 23 25 28 32 32 32 32 26 28 34 37 37 40 44 41 41 40 39 38 39 41
24 20 19 19 17 16 16 17 18 18 22 25 21 18 19 20 21 21 26 23 19 19 23 27 30 31 29 30 32 25 30 37 38 36 43 45 41 48 44 44 43 40 42
22 21 19 17 14 13 14 15 18 20 25 30 30 26 20 16 22 24 26 25 22 24 27 34 33 33 31 31 35 36 37 36 38 39 43 44 42 48 52 50 47 42 36
26 22 19 15 11 11 13 14 16 23 26 32 38 32 26 19 19 25 26 27 23 25 27 36 39 37 36 33 44 43 41 41 41 38 43 48 46 59 61 46 43 39 39
26 21 16 10 8 7 9 12 18 19 20 29 38 37 32 20 21 23 29 28 27 27 31 34 43 48 45 40 48 52 47 40 56 74 69 64 61 58 48 41 38 40 38
23 18 13 9 4 4 6 7 5 6 11 14 20 39 27 23 23 25 34 28 32 35 33 37 53 52 54 58 59 60 59 53 67 78 67 63 57 48 41 40 44 41 34
22 18 13 8 4 3 1 2 10 4 7 14 21 25 25 25 26 27 32 39 32 39 38 50 59 59 63 70 57 68 73 83 74 59 64 59 50 41 42 38 44 36 29
21 17 14 8 4 5 6 6 13 9 10 12 17 22 23 24 29 32 37 40 43 34 29 43 55 66 71 64 65 83 75 68 76 70 65 55 51 44 35 40 40 30 29
22 14 15 9 7 8 8 8 13 8 10 12 14 18 24 30 31 34 36 34 33 30 25 39 49 58 61 62 68 87 66 61 67 67 58 55 52 28 30 35 33 32 27
19 15 14 9 7 9 9 11 10 5 11 12 12 18 22 36 36 35 39 41 42 36 33 37 45 47 57 55 72 67 64 65 72 64 53 43 35 30 29 35 34 29 27
19 13 13 10 7 9 10 11 9 13 14 20 21 24 24 32 37 35 36 41 45 42 40 43 45 42 57 59 62 68 62 74 77 67 45 26 35 32 19 32 30 29 29
Wind_Direction_850mb
230 228 222 220 222 220 226 225 226 234 240 247 249 253 251 254 254 254 255 272 263 258 255 252 240 231 230 233 234 229 236 244 223 218 204 227 214 200 224 217 219 211 200
231 226 225 224 223 222 223 223 229 231 242 244 253 250 249 252 258 254 254 265 274 262 258 258 245 225 224 230 235 232 233 235 219 213 212 217 214 220 228 206 212 201 205
230 229 226 226 225 225 218 222 223 231 235 244 249 246 243 250 253 258 252 252 263 276 258 245 242 225 221 226 231 225 223 231 221 218 210 221 219 225 222 207 199 200 215
232 233 222 227 225 222 223 222 226 229 242 250 248 250 249 242 253 255 247 242 246 248 266 259 241 231 225 225 226 222 227 231 222 217 221 203 205 209 207 197 196 205 211
228 218 225 223 221 219 221 219 224 231 242 243 253 259 256 248 252 250 245 239 235 237 238 253 246 237 225 221 222 224 226 230 224 213 206 203 201 208 206 189 192 196 195
220 219 216 214 222 213 216 221 224 233 230 250 256 256 253 255 253 253 245 242 232 236 230 231 239 234 220 221 215 219 221 223 224 213 202 204 204 208 204 178 181 188 185
213 217 208 217 217 211 214 225 222 220 231 240 250 267 271 268 260 251 246 241 223 224 228 232 215 210 212 204 205 211 219 222 217 210 204 200 201 207 201 185 176 180 187
213 216 205 208 206 209 214 208 205 213 226 234 252 267 272 249 248 239 240 226 226 215 221 223 219 211 190 200 208 215 218 216 208 201 196 192 194 176 171 184 189 190 198
213 208 200 189 202 191 199 198 204 211 231 242 253 245 272 272 243 251 226 217 222 215 204 207 213 200 184 178 198 207 202 197 191 192 190 184 181 180 175 184 171 164 174
190 182 179 182 182 177 192 197 208 223 235 245 265 244 240 253 256 216 227 218 207 213 216 214 202 192 180 182 170 186 185 180 174 186 183 183 179 178 184 176 170 168 171
173 169 171 172 174 176 196 198 220 235 244 242 244 242 234 240 242 238 213 190 209 206 213 213 194 187 182 171 176 179 179 177 178 178 182 183 183 186 179 170 163 172 176
163 168 171 173 180 188 201 213 228 238 235 230 227 225 239 226 230 211 182 181 189 203 205 194 193 184 188 177 178 178 177 177 177 177 181 182 181 181 185 162 169 178 181
165 171 173 181 191 206 213 217 233 225 220 219 221 231 233 236 237 225 203 186 188 199 200 192 182 179 182 168 191 177 179 176 178 179 179 182 186 187 175 166 174 169 163
163 171 175 189 197 205 211 223 225 213 217 217 231 230 224 215 225 224 195 185 162 172 182 182 170 174 169 178 179 176 169 173 175 180 177 180 185 178 172 166 169 173 163
167 169 176 183 197 207 216 215 209 218 218 226 236 236 230 207 202 208 212 200 190 171 168 173 168 172 170 166 172 174 176 173 174 175 178 181 182 172 166 170 171 166 162
158 166 175 191 200 199 204 216 224 224 226 233 233 236 235 223 202 194 202 198 196 175 162 173 173 169 166 170 175 170 175 172 174 174 177 181 180 171 171 171 169 162 163
167 172 175 171 178 190 208 222 232 233 224 221 227 225 239 224 207 186 194 195 198 179 165 154 163 172 168 175 170 170 167 168 168 174 173 180 178 174 172 167 157 164 171
154 155 158 165 181 201 223 240 246 224 216 220 214 222 223 225 200 190 187 195 208 187 170 161 159 166 171 177 170 168 168 166 167 169 176 185 177 178 169 160 167 173 166
148 149 156 164 185 217 235 237 232 229 236 230 220 223 218 216 198 192 188 196 185 166 158 159 158 166 159 170 164 164 163 165 165 160 177 179 172 167 165 171 169 166 168
148 154 156 163 188 222 236 247 251 256 251 237 226 215 214 217 206 200 191 182 167 165 164 163 173 160 159 162 164 158 151 157 167 169 168 166 168 167 167 157 168 172 168
151 154 145 151 157 235 253 227 254 238 224 246 224 201 211 209 200 194 191 174 173 169 165 173 170 165 160 161 161 156 152 154 153 156 158 160 162 152 155 167 166 166 170
154 152 137 134 161 145 138 138 131 163 131 137 152 180 191 194 192 183 189 172 177 174 175 171 171 169 165 167 164 157 154 151 142 164 158 152 158 159 168 171 176 175 181
157 150 127 120 99 108 83 77 111 133 131 146 172 186 180 176 174 168 161 173 170 183 184 185 180 179 174 177 164 154 156 158 156 159 156 158 161 156 172 181 180 191 190
156 145 126 110 98 98 96 90 116 132 149 159 174 186 184 178 174 177 173 172 168 175 190 187 185 177 181 171 169 168 165 163 155 154 167 166 167 172 172 186 186 189 194
160 144 127 115 98 108 104 100 103 137 150 149 168 165 178 182 179 180 176 177 174 174 178 188 181 180 179 173 176 181 173 167 162 168 164 170 173 174 186 187 193 196 201
160 149 130 122 124 116 105 95 97 111 127 131 135 157 160 168 178 177 180 167 156 158 166 172 173 177 180 183 178 177 172 171 166 169 169 167 168 172 181 200 204 206 209